Japanese version Home page |
Updated on April 29, 2021 |
|
Orbital ElementsEpoch 2015 Feb. 27.0 TT = JDT 2457080.5 T 2015 Mar. 14.97561 TT Rudenko q 2.5416032 (2000.0) P Q n 0.14919436 Peri. 187.14291 -0.67472778 +0.73738421 a 3.5207440 Node 40.43157 -0.67471982 -0.59882015 e 0.2781062 Incl. 2.80456 -0.29915813 -0.31253632 P 6.61 From 219 observations 2015 Jan. 24-2021 Feb. 14, mean residual 0".6.
|
Magnitudes Graphm1 = 7.5 + 5 log d + 20.0 log r
|
The orbital elements are published on M.P.E.C. 2021-D104.
|